Date,TemperatureHighF,TemperatureAvgF,TemperatureLowF,DewpointHighF,DewpointAvgF,DewpointLowF,HumidityHigh,HumidityAvg,HumidityLow,PressureMaxIn,PressureMinIn,WindSpeedMaxMPH,WindSpeedAvgMPH,GustSpeedMaxMPH,PrecipitationSumIn
2013-1-1,55.7,46.2,37.1,54.9,44.0,32.9,97,92,83,30.17,29.90,6,1,0,0.00
2013-1-2,66.7,35.1,28.9,65.2,31.0,26.9,96,85,68,30.27,30.16,8,1,0,0.03
2013-1-3,42.9,37.5,28.7,33.0,30.4,26.9,94,76,65,30.40,30.25,7,1,0,0.00
2013-1-4,40.3,37.1,33.1,37.4,34.2,-99.9,96,93,72,30.45,30.32,4,0,0,0.00
2013-1-5,55.2,42.6,37.3,44.6,31.7,-99.9,96,84,64,30.33,30.17,4,0,0,0.00
2013-1-6,58.6,43.1,34.3,38.0,31.8,-99.9,97,73,38,30.34,30.23,7,1,0,0.00
2013-1-7,54.4,44.0,34.6,40.4,34.4,28.5,81,69,52,30.26,30.01,9,2,0,0.00
2013-1-8,50.6,47.8,45.0,49.8,46.5,40.4,97,95,78,30.01,29.80,11,1,12,0.00
2013-1-9,57.4,53.4,49.6,56.4,52.7,48.8,98,97,96,29.96,29.77,11,1,12,0.00
2013-1-10,63.9,51.4,43.3,62.1,39.9,-99.9,100,84,54,29.98,29.89,12,2,0,0.00
2013-1-11,71.5,58.9,48.5,64.0,16.1,-99.9,100,82,65,29.93,29.73,13,3,21,0.00
2013-1-12,71.8,63.9,44.2,67.0,17.1,-99.9,100,82,63,29.78,29.55,13,3,13,0.00
2013-1-13,50.6,41.3,34.1,49.5,-23.3,-99.9,100,72,48,30.12,29.78,11,3,13,0.00
2013-1-14,50.3,38.6,31.2,31.9,-95.4,-99.9,100,83,49,30.21,30.00,8,2,0,0.00
2013-1-15,44.6,34.2,33.3,32.0,-99.4,-99.9,100,93,74,30.16,29.99,9,2,0,0.00
2013-1-16,48.5,41.2,33.3,47.3,-98.1,-99.9,97,64,37,30.25,30.09,8,2,14,0.00
2013-1-17,64.5,48.1,35.3,38.8,-89.8,-99.9,100,56,34,30.40,30.20,6,1,0,0.00
2013-1-18,58.7,43.2,36.5,36.3,-83.6,-99.9,82,69,43,30.41,30.34,8,1,0,0.00
2013-3-5,60.4,60.4,60.4,-99.9,-99.9,-99.9,43,31,11,30.31,30.19,4,1,5,0.00
2013-3-6,63.0,55.6,46.6,21.0,18.2,11.3,32,24,13,30.32,30.17,7,1,0,0.01
2013-3-7,71.8,56.9,43.2,52.4,41.8,17.9,82,59,32,30.21,30.06,15,3,18,0.00
2013-3-8,63.2,59.2,55.3,61.8,56.6,50.8,97,91,77,30.10,29.96,14,3,17,0.05
2013-3-9,70.5,63.9,59.8,66.1,62.1,58.0,97,94,85,29.96,29.59,16,4,19,0.11
2013-3-10,63.6,56.3,44.0,61.2,41.2,31.2,97,60,35,30.01,29.64,11,3,16,0.87
2013-3-11,66.0,49.8,35.2,32.7,27.4,20.0,76,46,20,30.09,29.92,10,2,0,0.00
2013-3-12,78.5,59.7,44.1,39.0,30.8,24.5,49,36,17,30.13,29.96,12,2,16,0.00
2013-3-13,75.0,60.2,47.2,37.9,35.5,31.2,63,42,24,30.33,30.13,15,2,17,0.00
2013-3-14,77.4,61.7,48.2,52.6,44.6,36.6,89,57,29,30.26,30.09,11,2,15,0.00
2013-3-15,79.8,65.3,53.0,55.1,48.2,38.7,93,60,26,30.12,29.86,12,4,19,0.00
2013-3-16,83.6,68.0,56.7,60.5,54.6,49.1,92,66,32,29.86,29.59,15,4,19,0.00
2013-3-17,83.6,70.8,63.9,62.4,59.3,56.2,86,69,43,29.66,29.50,14,3,19,0.00
2013-3-18,87.6,71.9,60.2,64.3,52.5,39.0,96,59,19,29.79,29.55,10,2,12,0.00
2013-3-19,84.3,65.5,49.5,62.0,52.4,43.3,91,64,41,29.87,29.70,12,2,14,0.32
2013-3-20,71.1,59.3,50.6,54.5,44.6,34.1,96,63,27,30.11,29.86,12,2,15,0.03
2013-3-21,75.1,63.1,52.8,59.8,51.2,37.2,87,66,49,29.91,29.47,15,4,24,0.00
2013-3-22,86.2,70.3,56.4,65.3,60.6,47.7,96,74,44,29.62,29.49,13,2,14,0.00
2013-3-23,80.8,60.6,49.0,60.2,51.7,46.0,95,75,38,29.66,29.46,6,1,0,0.00
2013-3-24,58.6,50.0,38.6,29.8,24.4,21.6,64,38,25,30.06,29.91,11,3,14,0.00
2013-3-25,58.9,45.2,33.3,25.9,20.9,13.8,69,41,19,30.31,30.06,9,1,12,0.00
2013-3-26,65.3,49.5,34.6,23.7,20.3,16.3,54,34,16,30.38,30.19,9,1,0,0.00
2013-3-27,68.7,54.9,40.9,46.8,36.9,21.7,73,52,37,30.22,30.03,13,3,17,0.00
2013-3-28,73.1,61.7,53.3,58.8,54.1,46.6,88,77,59,30.08,29.99,12,3,13,0.00
2013-3-29,76.6,66.6,58.8,58.9,56.4,54.8,92,72,48,30.04,29.91,11,3,17,0.00
2013-3-30,83.6,70.1,61.7,62.3,59.7,57.6,93,72,44,29.97,29.74,14,3,14,0.00
2013-3-31,79.7,69.2,62.5,64.8,61.5,55.3,91,78,51,29.83,29.70,15,2,15,0.02
2013-4-1,84.5,70.4,58.6,64.4,59.8,56.3,94,72,43,29.91,29.75,14,2,15,0.00
2013-4-2,76.5,65.2,50.5,65.5,61.7,49.4,98,89,67,29.85,29.67,13,2,21,2.74
2013-4-3,53.9,49.6,45.9,53.3,49.0,45.4,98,98,97,30.03,29.68,8,2,15,0.56
2013-4-4,60.2,48.8,43.5,45.9,43.3,40.3,98,83,56,30.13,29.99,9,2,12,0.00
2013-4-5,72.9,54.6,36.8,48.5,43.4,35.8,98,70,38,30.17,29.95,9,1,0,0.00
2013-4-6,80.0,63.9,49.7,57.6,52.7,45.3,94,69,45,29.95,29.72,14,3,18,0.00
2013-4-7,82.3,67.5,60.1,64.5,60.2,56.5,91,79,51,29.77,29.60,13,4,17,0.00
2013-4-8,72.2,67.2,64.5,66.7,63.6,59.8,95,88,81,29.68,29.52,19,4,19,0.00
2013-4-9,85.6,72.7,67.5,68.6,66.2,64.1,94,81,54,29.56,29.43,15,5,20,0.00
2013-4-10,71.9,53.9,42.1,68.1,50.0,40.2,96,87,68,29.84,29.46,19,4,23,0.29
2013-4-11,68.8,53.1,42.2,43.3,39.4,35.1,89,62,34,29.89,29.70,10,2,0,0.02
2013-4-12,79.6,62.7,46.8,50.1,42.7,38.8,80,52,24,29.89,29.73,10,2,13,0.00
2013-4-13,76.6,63.7,53.0,58.1,51.2,45.1,95,66,37,29.83,29.64,13,2,13,0.00
2013-4-14,88.4,71.1,56.9,65.8,60.2,53.9,95,72,41,29.68,29.46,10,3,15,0.00
2013-4-15,89.5,75.6,67.5,67.1,65.2,62.5,95,72,42,29.63,29.53,14,4,18,0.00
2013-4-16,85.3,74.3,65.6,69.1,65.5,61.8,94,75,55,29.73,29.62,16,4,18,0.00
2013-4-17,81.5,73.5,70.4,70.7,69.1,67.2,96,87,64,29.71,29.51,15,4,20,0.01
2013-4-18,72.8,60.3,47.8,70.4,51.9,36.5,95,75,46,29.99,29.47,14,4,15,0.10
2013-4-19,68.1,54.0,41.6,37.2,30.8,24.4,73,45,20,30.22,29.97,9,2,0,0.00
2013-4-20,71.6,57.5,43.5,45.9,31.9,24.9,71,41,20,30.12,29.88,14,3,19,0.00
2013-4-21,78.8,62.3,45.9,55.7,50.6,43.8,93,68,41,30.04,29.88,13,3,13,0.00
2013-4-22,82.7,68.8,54.3,61.4,57.2,53.2,97,70,44,29.97,29.72,12,3,17,0.00
2013-4-23,76.8,63.2,48.0,66.1,56.3,40.4,92,79,56,29.98,29.68,15,3,18,0.00
2013-4-24,65.8,51.5,42.2,41.3,37.4,32.6,88,61,35,30.15,29.98,14,2,14,0.00
2013-4-25,66.8,58.8,53.2,45.7,42.5,40.0,66,55,40,30.22,30.06,11,2,0,0.00
2013-4-26,75.7,66.1,56.3,69.6,62.3,43.0,98,88,51,30.06,29.88,11,2,15,0.03
2013-4-27,84.0,72.4,65.5,69.3,66.1,61.6,96,82,53,29.95,29.76,9,2,12,0.03
2013-4-28,85.3,72.2,59.5,64.6,61.0,55.8,98,71,40,29.89,29.69,9,2,0,0.00
2013-4-29,84.3,70.6,63.9,70.2,63.6,58.5,96,80,42,29.78,29.62,15,2,21,0.19
2013-4-30,83.3,71.7,63.3,66.4,63.3,61.0,97,77,49,29.69,29.57,12,2,12,0.00
2013-5-1,87.2,75.1,65.1,67.6,65.3,63.3,96,74,48,29.74,29.62,10,2,12,0.00
2013-5-2,54.3,49.7,46.2,50.6,46.5,43.6,94,89,86,30.12,29.92,10,4,15,0.40
2013-5-12,81.1,71.0,60.1,57.5,51.1,43.4,74,51,31,30.13,29.99,7,1,0,0.00
2013-5-13,86.0,70.0,56.2,56.4,49.0,41.1,68,49,25,30.13,30.00,8,1,0,0.00
2013-5-14,84.5,72.3,59.9,66.0,60.2,55.6,92,68,42,30.07,29.84,15,3,19,0.00
2013-5-15,84.9,72.8,63.4,72.8,67.6,61.6,97,85,60,29.93,29.65,15,4,19,0.77
2013-5-16,90.7,76.2,67.9,72.4,69.3,66.8,97,82,48,29.70,29.55,14,4,16,0.08
2013-5-17,92.6,80.4,71.7,74.8,70.9,68.5,92,75,47,29.72,29.61,13,3,14,0.00
2013-5-18,93.1,79.5,69.4,71.3,67.2,62.2,95,69,43,29.74,29.62,16,4,18,0.00
2013-5-19,90.4,78.8,70.3,71.7,68.2,64.5,89,72,51,29.67,29.54,17,4,18,0.00
2013-5-20,91.3,79.4,70.9,71.4,68.8,66.0,92,72,49,29.66,29.52,16,4,17,0.00
2013-5-21,87.2,76.6,68.0,73.6,69.0,58.3,91,78,60,29.72,29.53,18,3,18,0.00
2013-5-22,92.5,76.5,58.8,71.6,60.4,53.8,86,61,33,29.78,29.65,9,1,0,0.00
2013-5-23,86.8,78.1,72.0,72.2,70.6,69.2,94,79,59,29.88,29.71,11,3,15,0.00
2013-5-24,79.8,71.3,66.5,72.3,68.7,64.8,98,92,75,29.97,29.83,10,2,13,1.23
2013-5-25,79.8,71.8,66.9,71.5,69.1,66.0,98,92,71,29.99,29.88,13,3,18,0.76
2013-5-26,82.1,73.7,70.1,73.0,70.4,68.5,97,90,73,29.94,29.88,11,3,15,0.00
2013-5-27,87.4,80.8,72.8,72.6,70.4,67.2,84,71,58,29.83,29.68,14,4,20,0.00
2013-5-28,88.0,77.4,70.6,72.4,68.9,66.8,90,76,54,29.74,29.60,17,4,21,0.00
2013-5-29,85.3,76.2,71.6,72.8,70.1,68.0,91,82,64,29.72,29.54,20,5,22,0.00
2013-5-30,89.2,78.9,72.8,73.7,71.0,69.4,90,78,58,29.67,29.58,13,4,18,0.00
2013-5-31,89.7,80.1,74.0,75.4,72.2,70.5,90,78,58,29.71,29.58,13,3,18,0.00
2013-6-1,93.6,82.2,74.0,75.1,71.8,70.2,90,73,49,29.73,29.61,17,3,19,0.00
2013-6-2,87.2,78.4,69.4,72.6,65.6,57.5,95,67,41,29.86,29.73,6,1,0,2.42
2013-6-3,91.0,77.3,62.9,68.4,63.1,59.4,91,64,37,29.84,29.68,12,1,12,0.00
2013-6-4,90.8,79.3,68.4,68.5,65.9,61.8,95,66,41,29.74,29.63,11,2,13,0.00
2013-6-5,90.3,79.1,68.3,70.2,67.2,64.5,95,69,45,29.71,29.57,11,3,15,0.00
2013-6-6,93.4,79.9,68.8,71.2,66.7,62.4,96,67,40,29.76,29.61,8,1,0,0.00
2013-6-7,83.8,74.0,65.6,66.1,61.1,53.1,91,66,38,29.85,29.73,8,1,0,0.00
2013-6-8,87.8,76.6,63.9,70.5,62.6,54.8,81,63,49,29.80,29.64,13,2,14,0.00
2013-6-9,87.9,78.0,66.9,73.8,70.3,65.0,96,78,56,29.82,29.67,11,2,15,0.20
2013-6-10,93.6,80.4,69.0,73.2,68.7,63.2,97,71,39,29.84,29.75,9,1,0,0.00
2013-6-11,92.1,80.3,72.0,72.4,70.1,62.4,96,73,46,29.87,29.77,13,2,17,0.00
2013-6-12,77.8,73.7,72.1,73.0,70.9,68.7,94,91,83,29.88,29.83,10,2,0,0.00
2013-6-13,82.9,76.6,73.8,71.3,68.8,64.7,90,77,65,29.82,29.78,6,1,0,0.00
2013-6-14,88.2,78.8,72.6,75.1,72.2,69.8,94,81,59,29.84,29.75,8,1,12,0.00
2013-6-15,88.4,80.0,74.4,75.4,73.1,71.0,95,80,60,29.84,29.75,6,1,0,0.00
2013-6-19,94.4,87.3,79.9,69.5,67.1,65.2,69,52,42,29.80,29.73,10,2,16,0.00
2013-6-20,95.4,82.9,72.2,72.3,68.4,62.4,92,65,38,29.89,29.77,13,3,17,0.00
2013-6-21,94.3,83.6,73.8,73.0,67.9,60.1,92,63,34,29.90,29.80,12,3,16,0.00
2013-6-22,95.3,83.1,72.3,71.9,67.6,60.0,93,63,34,29.88,29.71,12,3,15,0.00
2013-6-23,94.3,82.2,73.2,72.0,66.4,57.4,92,62,36,29.82,29.72,13,3,15,0.00
2013-6-24,97.5,82.8,73.1,72.4,68.8,64.2,92,66,37,29.86,29.72,13,4,17,0.00
2013-6-25,97.0,84.3,75.2,72.0,68.2,62.5,88,62,33,29.83,29.68,14,4,17,0.00
2013-6-26,99.2,85.0,73.8,73.2,68.8,63.3,88,62,34,29.79,29.69,11,3,17,0.00
2013-6-27,101.5,85.7,73.0,72.0,64.6,53.6,89,56,22,29.86,29.72,8,2,14,0.00
2013-6-28,102.8,87.8,72.7,71.8,65.9,59.8,90,53,26,29.82,29.64,8,1,0,0.00
2013-6-29,105.3,90.4,74.1,69.8,62.2,56.9,65,41,21,29.70,29.58,8,1,0,0.00
2013-6-30,89.9,79.7,67.7,71.2,65.5,57.4,94,65,39,29.79,29.65,9,2,13,0.22
2013-7-1,86.1,77.0,68.1,57.8,54.5,50.1,64,47,33,29.86,29.79,5,0,0,0.00
2013-7-2,91.6,76.8,64.1,60.6,52.9,46.6,70,47,23,29.94,29.82,10,1,12,0.00
2013-7-3,87.3,72.0,66.0,61.6,52.4,46.6,67,51,28,29.89,29.86,4,0,0,0.00
2013-7-5,90.4,85.1,80.7,66.9,61.6,56.4,63,47,32,29.76,29.69,10,3,0,0.00
2013-7-6,95.7,82.8,68.7,71.6,65.0,58.0,92,59,30,29.78,29.66,11,2,17,0.00
2013-7-7,97.3,82.3,72.0,73.3,69.4,63.7,94,68,35,29.82,29.71,16,2,18,0.01
2013-7-8,86.1,78.6,72.7,74.9,71.4,67.4,96,80,57,29.95,29.81,11,2,15,0.06
2013-7-9,82.1,78.8,74.7,71.0,70.5,70.0,88,76,68,29.95,29.88,10,2,15,0.00
2013-7-10,98.8,85.3,72.2,73.0,68.9,63.1,95,62,33,29.92,29.74,10,2,0,0.00
2013-7-11,99.6,85.7,72.9,73.5,67.1,59.2,91,58,30,29.83,29.69,9,2,0,0.00
2013-7-12,99.5,86.1,71.6,71.8,64.8,57.7,88,53,27,29.79,29.69,11,2,12,0.00
2013-7-13,102.0,88.1,73.2,68.3,62.3,38.3,76,46,17,29.82,29.67,11,1,14,0.00
2013-7-14,98.0,82.5,74.4,68.7,64.6,57.7,79,57,27,29.76,29.69,11,2,16,0.00
2013-7-15,75.4,70.7,68.7,72.3,69.2,67.0,98,95,79,29.88,29.73,9,2,0,1.50
2013-7-16,84.8,75.3,69.8,76.1,71.2,68.7,99,88,62,29.98,29.86,9,2,12,0.08
2013-7-17,84.5,73.2,69.4,75.1,70.7,68.7,98,92,68,30.02,29.94,8,1,13,0.70
2013-7-18,84.3,74.1,69.3,73.9,70.9,68.7,99,91,66,30.02,29.99,7,1,0,0.01
2013-7-27,87.0,80.6,71.0,76.6,71.0,67.4,89,73,59,29.82,29.73,7,1,0,1.62
2013-7-28,93.2,81.1,70.2,76.0,70.7,67.5,95,73,48,29.80,29.69,14,2,14,0.00
2013-7-29,95.5,83.8,74.7,73.9,69.8,62.8,91,66,37,29.84,29.76,14,3,17,0.00
2013-7-30,97.3,84.0,74.0,74.0,69.8,63.6,91,66,34,29.92,29.80,12,3,14,0.00
2013-7-31,99.5,84.9,72.4,71.5,66.4,59.9,94,59,28,29.92,29.78,10,2,0,0.00
2013-8-1,100.1,86.9,73.9,71.7,67.5,62.1,83,55,33,29.87,29.73,8,1,0,0.00
2013-8-2,98.0,86.1,74.3,69.8,65.8,60.9,75,53,31,29.81,29.72,10,2,13,0.00
2013-8-3,97.5,85.2,74.2,73.1,68.8,63.1,91,61,34,29.85,29.75,11,2,13,0.00
2013-8-4,97.5,85.0,73.8,74.6,70.9,66.7,94,66,39,29.90,29.75,10,2,16,0.00
2013-8-5,99.6,85.8,72.2,72.8,68.1,61.8,91,59,30,29.86,29.70,12,2,15,0.00
2013-8-6,100.8,86.3,72.9,74.1,69.1,60.3,91,61,29,29.78,29.63,11,3,17,0.00
2013-8-7,102.5,87.0,74.7,74.4,68.9,57.0,88,60,25,29.75,29.60,10,3,13,0.00
2013-8-8,101.4,86.4,73.3,72.4,67.3,56.8,90,58,27,29.72,29.60,9,2,12,0.00
2013-8-9,100.7,85.4,71.6,72.6,63.8,51.0,96,56,20,29.81,29.70,9,2,13,0.00
2013-8-10,98.7,83.7,74.0,71.9,69.2,62.0,84,64,36,29.89,29.81,8,1,0,0.00
2013-8-11,97.5,86.9,75.9,73.0,69.6,64.0,85,60,35,29.92,29.80,11,2,20,0.32
2013-8-12,96.9,83.1,71.1,72.8,68.8,64.5,96,66,36,29.91,29.79,8,1,13,0.01
2013-8-13,100.9,86.6,74.1,72.8,67.4,59.5,91,57,26,29.88,29.72,11,2,0,0.00
2013-8-14,102.3,84.0,75.0,72.0,68.9,62.9,84,63,29,29.85,29.73,8,2,12,0.00
2013-8-15,94.2,79.1,70.5,74.5,71.5,68.7,97,80,49,29.87,29.75,10,1,12,0.62
2013-8-16,90.6,77.2,69.6,74.8,69.4,62.4,98,80,43,29.91,29.78,6,0,0,0.01
2013-8-17,93.0,79.3,68.7,70.5,64.9,57.6,94,65,35,29.91,29.79,7,1,0,0.00
2013-8-18,94.0,81.3,69.0,68.1,59.7,54.8,71,50,30,29.91,29.83,10,1,0,0.00
2013-8-19,93.7,81.6,69.6,67.3,61.8,54.8,81,53,35,29.90,29.76,9,1,14,0.00
2013-8-20,94.0,80.5,68.9,69.9,64.3,56.6,93,61,30,29.87,29.77,12,2,13,0.00
2013-8-21,94.9,80.7,70.6,74.2,68.8,64.7,94,70,39,29.92,29.80,13,2,15,0.00
2013-8-22,95.8,82.7,71.5,74.0,69.3,66.3,95,67,41,29.93,29.76,9,1,12,0.00
2013-8-23,96.5,84.2,71.8,73.4,67.7,62.9,94,61,35,29.86,29.73,10,1,13,0.00
2013-8-24,98.3,85.4,72.8,70.9,67.9,63.7,86,59,34,29.88,29.76,10,1,13,0.00
2013-8-25,94.5,83.1,72.6,71.7,68.9,65.9,86,64,43,29.91,29.83,12,2,13,0.00
2013-8-26,89.8,77.7,70.5,71.6,70.0,67.5,95,78,50,29.96,29.85,11,3,15,0.00
2013-8-27,84.6,75.8,71.2,75.1,70.2,63.1,97,84,52,29.96,29.86,10,2,14,0.07
2013-8-28,96.0,81.4,71.2,73.8,68.6,64.4,98,69,37,29.96,29.84,8,1,0,0.00
2013-8-29,99.1,84.8,72.6,70.3,66.1,61.3,89,57,31,29.93,29.79,6,1,0,0.00
2013-8-30,102.1,87.4,74.8,67.9,63.5,51.8,70,46,18,29.87,29.71,6,1,0,0.00
2013-8-31,101.3,86.9,72.9,70.4,66.6,63.5,81,54,31,29.80,29.67,8,2,0,0.00
2013-9-1,100.3,85.9,72.4,72.2,67.0,63.1,87,56,33,29.76,29.65,9,2,12,0.00
2013-9-2,99.6,83.6,73.7,73.1,69.0,62.4,90,65,31,29.82,29.67,10,1,13,0.15
2013-9-3,100.1,83.8,70.6,71.0,66.6,62.7,90,61,31,29.85,29.72,9,1,0,0.00
2013-9-4,98.8,82.8,73.8,74.5,68.6,63.1,91,65,36,29.88,29.76,13,1,16,0.04
2013-9-5,96.3,81.9,70.8,72.5,68.4,63.6,94,67,36,29.95,29.83,12,1,14,0.00
2013-9-6,96.0,82.9,71.9,72.9,69.1,64.3,93,67,37,29.93,29.79,10,1,12,0.00
2013-9-9,91.8,78.1,70.9,74.8,70.1,65.8,97,79,45,29.84,29.75,15,2,19,0.27
2013-9-10,90.8,76.3,70.0,73.8,70.6,67.6,98,84,50,29.92,29.83,14,2,17,0.01
2013-9-11,92.3,80.2,72.2,73.2,67.0,-99.9,97,70,1,29.95,29.83,10,2,13,0.00
2013-9-12,94.1,80.7,70.3,72.6,67.1,59.7,97,68,34,29.91,29.75,9,1,14,0.00
2013-9-13,94.8,83.5,70.1,70.4,58.7,-99.9,92,53,26,29.82,29.67,14,2,14,0.00
2013-9-14,94.6,82.6,69.1,70.1,64.4,53.7,82,57,34,29.84,29.74,10,2,13,0.00
2013-9-15,90.8,80.3,71.0,72.4,68.7,64.9,94,70,45,29.87,29.76,9,2,13,0.00
2013-9-16,90.3,78.9,72.8,73.4,71.0,68.5,94,78,53,29.90,29.79,13,1,13,0.04
2013-9-17,91.5,78.8,71.7,74.7,70.9,67.2,98,79,48,29.90,29.76,8,1,0,0.00
2013-9-18,94.0,80.2,72.0,73.3,69.3,63.1,97,73,39,29.86,29.71,9,2,14,0.00
2013-9-19,91.9,78.9,73.3,75.0,72.0,69.4,95,81,50,29.80,29.66,9,2,17,0.56
2013-9-20,76.5,72.6,68.8,75.8,71.8,68.2,98,97,96,29.72,29.61,8,1,0,2.24
2013-9-21,68.8,66.9,64.6,68.2,65.6,62.3,98,96,90,29.78,29.70,7,2,0,0.01
2013-9-28,88.5,79.2,72.2,78.8,73.7,70.8,96,84,60,29.83,29.72,14,2,14,0.40
2013-9-29,72.2,67.6,65.8,70.6,64.4,63.1,96,89,80,29.84,29.80,2,0,0,0.60
2013-10-3,89.0,83.2,73.9,72.6,69.8,68.2,85,65,52,29.78,29.66,10,2,12,0.00
2013-10-4,88.4,78.4,71.2,71.7,69.7,67.3,94,77,52,29.75,29.67,12,3,15,0.00
2013-10-5,87.3,72.7,59.3,70.8,62.5,41.2,96,72,48,29.92,29.70,9,2,13,0.00
2013-10-6,78.2,62.6,51.3,54.5,46.7,36.8,96,62,23,30.02,29.89,6,1,0,0.47
2013-10-7,82.8,67.4,50.6,48.1,43.1,38.2,68,43,24,30.06,29.92,4,0,0,0.00
2013-10-8,83.7,70.3,58.9,52.2,47.3,42.2,58,45,29,29.96,29.84,6,1,0,0.00
2013-10-9,81.3,69.4,57.2,61.7,56.8,47.3,94,66,44,29.92,29.81,10,2,13,0.00
2013-10-10,83.9,71.5,61.2,67.5,63.4,59.7,97,78,52,29.90,29.74,13,2,15,0.00
2013-10-11,86.5,76.2,69.0,73.5,70.4,65.2,95,83,61,29.80,29.68,9,2,15,0.00
2013-10-12,89.8,79.2,73.9,75.0,72.4,70.2,96,81,55,29.87,29.74,13,2,13,0.00
2013-10-13,74.0,68.8,67.6,70.9,67.3,66.5,97,95,87,29.89,29.85,10,2,17,3.94